Other Public Products
Issued by NWS Grand Forks, ND

Home | Current Version | Previous Version | Graphics & Text | Print | Product List | Glossary On
Versions: 1 2 3 4 5 6 7 8 9 10 11 12 13 14 15 16 17 18 19 20 21 22 23 24 25 26 27 28 29 30 31 32 33 34 35 36 37 38 39 40 41 42 43 44 45 46 47 48 49 50
000
FPUS83 KFGF 160710
OPUFGF
PRAIRIE TO PINES WEATHER ROUNDUP
NATIONAL WEATHER SERVICE EASTERN NORTH DAKOTA/GRAND FORKS ND
100 AM CST TUE JAN 16 2018

 **SATELLITE DATA USED TO AUGMENT SKY COVER AT AUTOMATED STATIONS**
 *****  WEATHER ACROSS EASTERN NORTH DAKOTA  *****

CITY           SKY/WX    TMP DP  RH WIND       PRES   REMARKS
GRAND FORKS    FAIR     -13 -19  75 NW9       30.85S WCI -31
GRND FORKS AFB FAIR     -13 -22  66 NW7       30.84F WCI -29
GRND FORKS NWS   N/A    -13 N/A N/A N6          N/A  WCI -27
BUXTON         NOT AVBL
DEVILS LAKE    FAIR     -19 -24  77 NW3       30.80F
FARGO          FAIR     -11 -16  78 N17       30.81S WCI -35
WAHPETON ARPT  CLOUDY    -9 -15  77 NW14G20   30.79S WCI -31
$$

 *****  WEATHER ACROSS CENTRAL AND WESTERN NORTH DAKOTA  *****

CITY           SKY/WX    TMP DP  RH WIND       PRES   REMARKS
JAMESTOWN      FAIR     -12 -18  74 NW12      30.77F WCI -32
BISMARCK       FAIR     -18 -24  74 W3        30.83F
MINOT          FAIR     -14 -21  71 CALM      30.75F
MINOT AFB      FAIR     -21 -27  73 S6        30.75F WCI -36
GARRISON         N/A    -15 -20  78 W3        30.77F
WILLISTON      FAIR     -17 -24  70 SW3       30.72F
DICKINSON      FAIR     -15 -21  74 S5        30.66F WCI -27
HETTINGER      FAIR     -18 -23  77 CALM      30.71F
$$

 *****  OTHER OBSERVATIONS NORTHEAST NORTH DAKOTA  *****

CITY           SKY/WX    TMP DP  RH WIND       PRES   REMARKS
WALHALLA       FAIR     -13 -20  70 SW5       30.83F WCI -25
LANGDON        FAIR     -18 -24  76 NW3       30.75F
CAVALIER         N/A    -15 -20  76 W8        30.83F WCI -32
GRAFTON        FAIR     -11 -18  70 NW5       30.88S WCI -23
CANDO          FAIR     -22 -27  76 W7        30.80F WCI -39
FORT TOTTEN    NOT AVBL
ROLLA          FAIR     -13 -20  70 SW8       30.72F WCI -30
RUGBY          FAIR     -20 -26  76 W6        30.79F WCI -36
 ***** THE ABOVE OBSERVATIONS ARE NON NWS ARE NOT QUALITY
        CONTROLLED AND MAY MIS-REPORT RAIN FOR SNOW...
$$

 *****  OTHER OBSERVATIONS SOUTHEAST NORTH DAKOTA *****

CITY           SKY/WX    TMP DP  RH WIND       PRES   REMARKS
COOPERSTOWN    FAIR     -13 -20  70 NW10      30.79F WCI -32
VALLEY CITY    FAIR     -15 -20  76 NW15      30.80S WCI -38
OAKES            N/A    -11 -18  70 NW14      30.79S WCI -33
GWINNER          N/A     -9 -17  70 NW12      30.78F WCI -29
SHEYENNE NWR     N/A    -11 -19  67 NW7       29.95S WCI -26
BUFFALO        NOT AVBL
WYNDMERE       NOT AVBL
 ***** THE ABOVE OBSERVATIONS ARE NON NWS ARE NOT QUALITY
       CONTROLLED AND MAY MIS-REPORT RAIN FOR SNOW...
$$

  *****  WEATHER ACROSS NORTHERN MINNESOTA  *****

CITY           SKY/WX    TMP DP  RH WIND       PRES   REMARKS
FLAG ISLAND    FAIR     -15 -20  76 CALM      30.74F
WARROAD        FAIR     -15 -20  76 W3        30.75F
ROSEAU         FAIR     -17 -22  76 W6        30.77S WCI -31
HALLOCK        FAIR     -15 -20  76 N6        30.83F WCI -29
THF RVR FALLS  FAIR     -17 -21  82 N9        30.77F WCI -36
HALSTAD        NOT AVBL
FOSSTON        CLOUDY   -15 -18  84 NW13      30.73S WCI -37
BAUDETTE       CLOUDY   -12 -16  82 NW6       30.71R WCI -26
WASKISH        CLOUDY    -6  -9  84 N5        30.70S WCI -17
CROOKSTON      FAIR     -15 -20  76 N12       30.83F WCI -36
$$
  *****  WEATHER ACROSS CENTRAL AND WEST MINNESOTA  *****

CITY           SKY/WX    TMP DP  RH WIND       PRES   REMARKS
BEMIDJI        CLOUDY    -7 -11  83 NW7       30.67R WCI -21
PARK RAPIDS    CLOUDY    -3  -8  79 N9        30.64S HAZE    WCI -19
WADENA         FLURRIES  -9 -15  77 W5        30.65R WCI -21
DETROIT LAKES  CLOUDY    -9 -15  77 NW13      30.69S HAZE    WCI -30
MOORHEAD       CLOUDY   -11 -18  70 N5        30.80S WCI -23
FERGUS FALLS   FAIR     -13 -18  77 NW9       30.78S WCI -31
ELBOW LAKE     FAIR     -13 -17  80 W13       30.71F WCI -34
MORRIS MN      CLOUDY   -11 -17  77 NW15      30.70F HAZE    WCI -34
STAPLES        CLOUDY    -6  -9  84 N7        30.65R WCI -20
WHEATON        NOT AVBL
$$
  *****  WEATHER ELSEWHERE ACROSS MINNESOTA  *****

CITY           SKY/WX    TMP DP  RH WIND       PRES   REMARKS
DULUTH         FAIR       2  -1  88 N9        30.54R WCI -13
INTRNTL FALLS  CLOUDY    -1  -5  82 NW7       30.68R WCI -14
ELY            CLOUDY     1   0  92 NW5       30.58S WCI  -8
CLOQUET        CLOUDY     3   0  85 NW16      30.55S WCI -16
BRAINERD       CLOUDY    -1  -6  79 N12       30.63F WCI -18
HIBBING        CLOUDY     0  -3  87 N12       30.60R WCI -17
ALEXANDRIA     CLOUDY   -10 -15  78 NW10      30.64S WCI -29
SAINT CLOUD    CLOUDY    -1  -5  82 N15       30.61S WCI -21
MINNEAPOLIS    MOCLDY     0  -4  83 NW13      30.59R WCI -18
$$

  *****  WEATHER ACROSS SOUTH DAKOTA  *****

CITY           SKY/WX    TMP DP  RH WIND       PRES   REMARKS
SIOUX FALLS    CLOUDY    -3  -8  79 NW13      30.68S WCI -22
BROOKINGS      CLOUDY    -6 -11  79 N15       30.66  WCI -27
WATERTOWN      CLOUDY    -8 -12  83 N14       30.67S WCI -29
HURON          CLOUDY    -7 -13  75 N14G23    30.80S WCI -28
SISSETON         N/A     -8 -13  78 NW20      30.76S WCI -32
ABERDEEN       CLOUDY    -8 -15  71 N10       30.81F WCI -26
MITCHELL       CLOUDY    -3 -10  72 N21G26    30.79R WCI -26
PIERRE         FAIR      -8 -14  74 NW6       30.81S WCI -21
MOBRIDGE       FAIR     -10 -17  71 NW6       30.77F WCI -23
RAPID CITY     FAIR      -9 -13  83 W7        30.67F WCI -24
$$

  *****  SOME WEATHER IN NEARBY STATES *****

CITY           SKY/WX    TMP DP  RH WIND       PRES   REMARKS
GLASGOW MT     FAIR     N/A N/A N/A E17       30.59F
GREAT FALLS MT FAIR      23  10  57 S18       30.27F WCI   9
CHEYENNE WY    FAIR      -3  -7  82 W8        30.44S WCI -18
SCOTTSBLUFF NE FAIR      -3  -8  79 CALM      30.62F
OMAHA NE       MOCLDY    -2  -9  72 NW20G28   30.70S WCI -24
DES MOINES IA  FLURRIES  -5 -13  68 NW16      30.61S WCI -27
DAVENPORT IA   FAIR     N/A N/A N/A W14       30.49S
CHICAGO IL     LGT SNOW  10   5  80 W12       30.32S WCI  -5
EAU CLAIRE WI  CLOUDY    11   6  81 VRB7      30.47R WCI   0
LA CROSSE WI   CLOUDY     9   3  77 NW13      30.48S WCI  -7
$$

  *****  SOME NATIONAL WEATHER *****

CITY           SKY/WX    TMP DP  RH WIND       PRES   REMARKS
LA GUARDIA NY  CLOUDY    25  17  72 E9        30.49R WCI  15
RALEIGH NC     FAIR      23  17  78 CALM      30.44F
ATLANTA GA     FAIR      35  24  64 CALM      30.39F
NEW ORLEANS LA FAIR      42  41  96 CALM      30.37F
OKLAHOMA CITY  MOCLDY    14  -3  47 N24G40    30.72R WCI  -5
ALBUQUERQUE NM FAIR      26  17  68 E28G37    30.39R WCI  10
SALT LAKE CITY FAIR      36  28  73 SE5       30.31F
LOS ANGELES CA MOCLDY    59  58  96 W9        30.13S
BOISE ID       FAIR      38  29  70 S9        30.21F
SEATTLE WA     LGT RAIN  51  44  77 W3        29.98R
$$

*** WEATHER ACROSS MANITOBA...SASKATCHEWAN AND ONTARIO ***
                ***ONTARIO***

CITY           SKY/WX    TMP DP  RH WIND       PRES   REMARKS
GERALDTON      FLURRIES   0  -2  92 N5        30.55S WCI -10
THUNDER BAY    PTCLDY     3   1  92 SW5       30.60R WCI  -6
SIOUX LOOKOUT  FLURRIES  -6 -11  77 N6        30.64F WCI -18
TORONTO        FLURRIES  18  14  86 N8        30.29S WCI   7
BIG TROUT LK   CLEAR    -13 -18  77 SW9       30.51F WCI -31
PICKLE LAKE    NOT AVBL
DRYDEN         CLOUDY    -6  -9  84 N3        30.65F
KENORA         CLEAR    -13 -18  77 N7        30.68F WCI -29
$$
                *** MANITOBA***

CITY           SKY/WX    TMP DP  RH WIND       PRES   REMARKS
BRANDON        CLEAR    -20 -26  76 W5        30.75F WCI -33
DAUPHIN        CLEAR     -4 -13  65 SW15G22   30.70F WCI -25
ISLAND LAKE    MOCLDY    -9 -17  70 W10       30.57F WCI -28
PILOT MOUND      N/A    -18 -24  76 SW7         N/A  WCI -35
THE PAS        CLOUDY    -2 -11  65 S9        30.53F WCI -18
THOMPSON       CRYSTALS  -2  -9  71 SW14      30.34F WCI -21
WINNIPEG       PTCLDY   -17 -22  76 W5        30.82F WCI -29
LYNN LAKE      CLOUDY     3  -2  78 SW15G25   30.18F WCI -15
CHURCHILL      CLOUDY     5  -4  66 SW21G26   30.02F WCI -16
GILLAM         MOCLDY    -2  -9  71 SW16      30.27F WCI -23
$$
                ***SASKATCHEWAN***

CITY           SKY/WX    TMP DP  RH WIND       PRES   REMARKS
ESTEVAN        CLEAR    -13 -18  77 SW13      30.69F WCI -34
KINDERSLEY     CLEAR      0  -9  65 S7        30.31F WCI -13
LLOYDMINSTER   PTCLDY     0  -8  71 S13       30.24F WCI -18
PRINCE ALBERT  CLEAR    -18 -24  76 E3        30.47F
REGINA         CLEAR    -11 -18  70 SE14      30.59F WCI -33
YORKTON        CLOUDY    -6 -11  77 S9        30.61F WC



USA.gov is the U.S. government's official web portal to all federal, state and local government web resources and services.